Flag for United Kingdom Weather past 2 weeks in Birmingham, England, United Kingdom

Now
48 °F

Passing clouds.


Feels Like: 44 °F
Forecast: N/A
Wind: 10 mph from South

Location: Birmingham / Airport

Current Time: Dec 21, 2014 at 6:04:53 PM

Latest Report: Dec 21, 2014 at 5:20 PM


Visibility: N/A

Pressure: 30.09 "Hg

Humidity: 94%

Dew point: 46 °F

Location of BirminghamLocation

Historic Weather in Birmingham — Graph

°F

Birmingham temperature yesterday

Maximum temperature yesterday: 48 °F (at 12:20 PM)
Minimum temperature yesterday: 41 °F (at 11:20 PM)
Average temperature yesterday: 45 °F

Past Weeks' High & Low Weather Summary

 TemperatureHumidityPressure
High57 °F (Dec 18, 10:20 AM)100% (Dec 9, 9:20 PM)30.39 "Hg (Dec 9, 9:20 PM)
Low28 °F (Dec 13, 7:20 AM)53% (Dec 7, 2:20 PM)29.12 "Hg (Dec 12, 3:50 AM)
Average44 °F82%29.89 "Hg
* Reported Dec 6 4:20 PM — Dec 21 4:50 PM, Birmingham, Weather by CustomWeather, © 2014

Note: Actual official high and low records may vary slightly from our data, if they occured in-between our weather recording intervals... More about our weather records

Advertising

Birmingham weather history for previous 24 hours

 ConditionsComfort  
Time TempWeatherWind HumidityBarometerVisibility
4:50 PM
Dec 21
50 °FPassing clouds.9 mph82%30.09 "HgN/A
4:20 PM50 °FPassing clouds.7 mph82%30.12 "HgN/A
3:50 PM50 °FPassing clouds.9 mph82%30.12 "HgN/A
3:20 PM50 °FPassing clouds.7 mph82%30.12 "HgN/A
2:50 PM50 °FPartly sunny.9 mph82%30.15 "HgN/A
2:20 PM50 °FPartly sunny.13 mph76%30.15 "HgN/A
1:50 PM52 °FPartly sunny.12 mph72%30.18 "HgN/A
1:20 PM50 °FPartly sunny.10 mph76%30.18 "HgN/A
12:50 PM50 °FOvercast.9 mph76%30.21 "HgN/A
12:20 PM48 °FPartly sunny.9 mph82%30.21 "HgN/A
11:50 AM48 °FPartly sunny.8 mph82%30.24 "HgN/A
11:20 AM48 °FPartly sunny.10 mph76%30.24 "HgN/A
10:50 AM48 °FScattered clouds.10 mph76%30.24 "HgN/A
10:20 AM46 °FScattered clouds.9 mph82%30.24 "HgN/A
9:50 AM46 °FPartly sunny.8 mph82%30.24 "HgN/A
9:20 AM46 °FPartly sunny.7 mph82%30.27 "HgN/A
8:50 AM45 °FBroken clouds.9 mph87%30.27 "HgN/A
8:20 AM45 °FScattered clouds.8 mph87%30.27 "HgN/A
7:50 AM45 °FPassing clouds.8 mph87%30.27 "HgN/A
7:20 AM45 °FPassing clouds.7 mph87%30.27 "HgN/A
6:50 AM45 °FPassing clouds.8 mph87%30.27 "HgN/A
6:20 AM45 °FPartly cloudy.8 mph87%30.30 "HgN/A
5:50 AM45 °FPartly cloudy.10 mph81%30.30 "HgN/A
5:20 AM43 °FPassing clouds.8 mph87%30.30 "HgN/A
4:50 AM45 °FPassing clouds.10 mph81%30.30 "HgN/A
4:20 AM43 °FPassing clouds.8 mph87%30.33 "HgN/A
3:50 AM45 °FPassing clouds.9 mph81%30.33 "HgN/A
3:20 AM43 °FPassing clouds.8 mph87%30.33 "HgN/A
2:50 AM43 °FPassing clouds.7 mph81%30.36 "HgN/A
2:20 AM41 °FPassing clouds.5 mph87%30.36 "HgN/A
1:50 AM41 °FPassing clouds.7 mph87%30.36 "HgN/A
1:20 AM41 °FPassing clouds.5 mph87%30.36 "HgN/A
12:20 AM43 °FPassing clouds.5 mph87%30.39 "HgN/A
11:50 PM
Dec 20
41 °FPassing clouds.6 mph87%30.39 "HgN/A
11:20 PM41 °FPassing clouds.6 mph93%30.39 "HgN/A
10:50 PM43 °FPassing clouds.6 mph81%30.39 "HgN/A
10:20 PM45 °FPassing clouds.5 mph81%30.39 "HgN/A
9:50 PM45 °FPassing clouds.5 mph76%30.39 "HgN/A
9:20 PM45 °FPassing clouds.6 mph76%30.39 "HgN/A
8:50 PM45 °FPassing clouds.7 mph76%30.39 "HgN/A
8:20 PM45 °FPassing clouds.8 mph76%30.39 "HgN/A
7:50 PM45 °FClear.8 mph76%30.39 "Hg10 mi
7:20 PM45 °FPassing clouds.9 mph76%30.39 "HgN/A
6:50 PM45 °FPassing clouds.7 mph76%30.36 "HgN/A
6:20 PM45 °FClear.12 mph76%30.36 "Hg10 mi
Weather by CustomWeather, © 2014

See weather overviewHow to use our weather pages